Location: Saluda
(35.2377°N, 82.3468°W)
Time: 16:04:33
(UTC+00:00)

Explorer 11/Cluster Stage 4 - Pass Details

Date: 03 October 2022
Orbit: 466 x 1247 km, 28.8° (Epoch: 08 December)

Event Time Altitude Azimuth Distance (km) Brightness Sun altitude
Rises 22:39:51 0° 262° (W) 3,539 13.0 5.4°
Reaches altitude 10° 22:44:58 10° 227° (SW) 2,345 10.1 4.3°
Maximum altitude 22:46:15 11° 214° (SSW) 2,227 9.6 4.1°
Drops below altitude 10° 22:47:29 10° 200° (SSW) 2,219 9.3 3.8°
Sets 22:51:45 0° 162° (SSE) 2,917 9.4 2.9°
